This is the latest recevied weather packets stored in our database for station/object E24YPM-1. If no packets are shown the sender has not sent any weather packets the latest 10 day(s).
| Time | Temp. | Humidity | Pressure | Rain* | Wind** | Luminosity | Snow |
|---|---|---|---|---|---|---|---|
| 1777675440 | 32.78° C | 47% | 1004 hPa | - | - | 0 W/m² | - |
| 1777674526 | 32.78° C | 46% | 1004 hPa | - | - | 0 W/m² | - |
| 1777673613 | 32.78° C | 45% | 1003 hPa | - | - | 0 W/m² | - |
| 1777672883 | 32.78° C | 43% | 1003 hPa | - | - | 0 W/m² | - |
| 1777672005 | 32.22° C | 42% | 1003 hPa | - | - | 0 W/m² | - |
| 1777671063 | 32.22° C | 40% | 1003 hPa | - | - | 0 W/m² | - |
| 1777670138 | 31.67° C | 37% | 1003 hPa | - | - | 0 W/m² | - |
| 1777669039 | 31.11° C | 32% | 1003 hPa | - | - | 0 W/m² | - |
| 1777668126 | 30.56° C | 29% | 1003 hPa | - | - | 0 W/m² | - |
| 1777667188 | 30° C | 31% | 1003 hPa | - | - | 0 W/m² | - |
| 1777665325 | 30.56° C | 31% | 1003 hPa | - | - | 0 W/m² | - |
| 1777664450 | 30.56° C | 31% | 1004 hPa | - | - | 0 W/m² | - |
| 1777663531 | 30.56° C | 31% | 1004 hPa | - | - | 0 W/m² | - |
| 1777662629 | 31.11° C | 31% | 1004 hPa | - | - | 0 W/m² | - |
| 1777661699 | 31.11° C | 31% | 1004 hPa | - | - | 0 W/m² | - |
| 1777660783 | 31.11° C | 32% | 1004 hPa | - | - | 0 W/m² | - |
| 1777659868 | 31.11° C | 32% | 1004 hPa | - | - | 0 W/m² | - |
| 1777658950 | 31.11° C | 32% | 1004 hPa | - | - | 0 W/m² | - |
| 1777658033 | 31.11° C | 31% | 1004 hPa | - | - | 0 W/m² | - |
| 1777654376 | 31.67° C | 30% | 1006 hPa | - | - | 0 W/m² | - |
| 1777653601 | 32.22° C | 28% | 1005 hPa | - | - | 0 W/m² | - |
| 1777652625 | 32.22° C | 28% | 1005 hPa | - | - | 0 W/m² | - |
| 1777651703 | 32.22° C | 29% | 1005 hPa | - | - | 0 W/m² | - |
| 1777650780 | 32.22° C | 30% | 1004 hPa | - | - | 0 W/m² | - |
| 1777649934 | 32.78° C | 31% | 1004 hPa | - | - | 0 W/m² | - |
* Rain since midnight (hover to see other rain measurements)
** Current wind speed in m/s (hover to see current wind gust speed)